Probability
25 43 65 73 72 67 61 55 48 41 35 26 14 6 3 1 0 0 0 0 0 0 0 0 0 0 0 0 0 0 0 0 0 0 0 0 0 0 0 0 0 0 0
29 46 67 76 73 68 62 56 48 40 36 29 18 8 5 3 1 0 0 0 0 0 0 0 0 0 0 0 0 0 0 0 0 0 0 0 0 0 0 0 0 0 0
40 52 69 78 76 69 63 57 48 40 36 31 21 12 8 6 2 0 0 0 0 0 0 0 0 0 0 0 0 0 0 0 0 0 0 0 0 0 0 0 0 0 0
51 57 66 77 79 72 64 56 48 40 36 32 24 16 11 6 3 0 0 0 0 0 0 0 0 0 0 0 0 0 0 0 0 0 0 0 0 0 0 0 0 0 0
55 56 63 74 78 73 66 57 48 41 37 33 26 18 11 6 3 1 0 0 0 0 0 0 0 0 0 0 0 0 0 0 0 0 0 0 0 0 0 0 0 0 0
53 54 59 67 71 69 65 59 50 43 39 35 29 20 12 6 3 1 0 1 1 1 0 0 0 0 0 0 0 0 0 0 0 0 0 0 0 0 0 0 0 0 0
47 50 56 60 62 62 62 59 53 46 42 37 31 23 15 8 5 3 2 2 2 2 1 0 0 0 0 0 0 0 0 0 0 0 0 0 0 0 0 0 0 0 0
43 47 52 55 55 57 59 59 55 51 46 39 32 26 19 13 9 5 3 3 3 3 1 0 0 0 0 0 0 0 0 0 0 0 0 0 0 0 0 0 0 0 0
41 44 48 50 51 53 57 59 57 53 48 41 34 26 19 14 10 6 4 2 3 3 2 1 0 0 0 0 0 0 0 0 0 0 0 0 0 0 0 0 0 0 0
37 39 41 45 47 49 52 55 53 48 44 41 33 22 12 9 8 6 4 3 2 2 2 1 0 0 0 0 0 0 0 0 0 0 0 0 0 0 0 0 0 0 0
31 32 35 39 42 42 43 45 44 41 38 36 29 17 7 5 5 4 3 2 1 1 1 0 0 0 0 0 0 0 0 0 0 0 0 0 0 0 0 0 0 0 0
27 28 30 31 31 33 34 35 34 33 32 29 24 16 9 4 3 2 1 1 0 0 0 0 0 0 0 0 0 0 0 0 0 0 0 0 0 0 0 0 0 0 0
25 26 26 23 23 27 30 30 29 28 26 24 21 18 12 5 1 1 0 0 0 0 0 0 0 0 0 0 0 0 0 0 0 0 0 0 0 0 0 0 0 0 0
20 21 21 18 17 22 28 29 27 24 22 20 19 16 11 5 1 0 1 1 0 0 0 0 0 0 0 0 0 0 0 0 0 0 0 0 0 0 0 0 0 0 0
12 13 14 13 12 16 23 25 24 20 19 19 17 14 9 4 1 1 2 2 1 0 0 0 0 0 0 0 0 0 0 0 0 0 0 0 0 0 0 0 0 0 0
5 7 9 9 8 11 16 19 19 17 16 17 15 12 8 4 1 1 2 2 1 0 0 0 0 0 0 0 0 0 0 0 0 0 0 0 0 0 0 0 0 0 0
2 3 5 7 7 8 10 12 13 13 14 15 13 11 8 4 1 1 2 2 1 0 0 0 0 0 0 0 0 0 0 0 0 0 0 0 0 0 0 0 0 0 0
1 1 2 5 7 7 7 7 8 10 11 11 11 10 7 4 2 1 1 2 1 0 0 0 0 0 0 0 0 0 0 0 0 0 0 0 0 0 0 0 0 0 0
0 0 1 5 8 7 5 5 6 8 8 8 8 8 6 5 3 1 0 1 1 0 0 0 0 0 0 0 0 0 0 0 0 0 0 0 0 0 0 0 0 0 0
1 0 1 4 7 8 7 5 5 6 6 5 5 6 6 5 3 1 0 0 0 0 0 0 0 0 0 0 0 0 0 0 0 0 0 0 0 0 0 0 0 0 0
1 0 0 2 5 7 8 6 5 6 6 5 4 4 5 5 3 1 0 0 0 0 0 0 0 0 0 0 0 0 0 0 0 0 0 0 0 0 0 0 0 0 0
1 0 0 1 3 5 6 5 5 5 5 4 4 3 3 3 2 1 0 0 0 0 0 0 0 0 0 0 1 1 0 0 0 0 0 0 0 0 0 0 0 0 0
0 0 0 1 1 2 3 3 3 4 4 3 2 1 1 1 1 0 0 0 0 0 0 0 0 0 0 0 1 1 0 0 0 0 0 0 0 0 0 0 0 0 0
0 0 0 1 1 1 1 2 2 3 2 1 0 0 0 0 0 0 0 0 0 0 0 0 0 0 0 0 0 0 0 0 0 0 0 0 0 0 0 0 0 0 0
0 0 0 1 1 1 1 1 1 2 1 1 0 0 0 0 0 0 0 0 0 0 0 0 0 0 0 0 0 0 0 0 0 0 0 0 0 0 0 0 0 0 0
0 0 0 0 0 0 1 1 1 1 1 1 0 0 0 0 0 0 0 0 0 0 0 0 0 0 0 0 0 0 0 0 0 0 0 0 0 0 0 0 0 0 0
Wind_Speed
8 12 18 19 19 19 19 19 19 18 18 18 18 18 18 18 19 19 18 18 17 17 17 17 17 18 18 18 18 18 18 17 17 17 16 16 16 16 16 16 14 10 17
13 15 19 19 19 19 19 19 19 18 18 18 18 18 18 18 18 18 18 17 17 17 17 17 17 18 18 18 18 18 17 17 17 16 14 12 13 15 16 15 14 10 16
14 16 18 19 19 18 18 18 18 18 18 18 18 18 18 18 18 18 18 18 17 17 17 17 17 17 17 17 16 16 16 15 15 14 12 6 9 15 16 15 15 16 15
13 13 15 18 19 19 18 18 19 19 19 18 18 18 18 18 18 18 18 18 17 17 17 17 16 16 16 15 14 14 13 13 13 11 6 5 6 13 15 15 15 15 15
11 10 12 17 19 19 18 19 19 19 19 18 18 18 18 18 18 18 18 17 17 17 17 16 16 15 14 13 13 13 13 14 13 10 6 5 5 12 14 14 14 14 14
8 8 12 16 18 18 18 18 19 19 19 18 18 17 18 18 18 18 17 17 17 16 16 16 15 14 12 11 12 13 14 14 11 6 5 4 4 11 13 13 13 13 13
7 7 10 15 17 18 18 18 18 19 19 18 18 18 18 18 18 18 17 17 17 17 16 16 14 13 11 11 12 13 14 12 7 5 4 4 5 12 12 12 12 12 12
7 7 9 14 15 16 17 17 17 18 18 18 18 18 18 18 18 18 18 17 17 17 16 15 14 12 11 10 12 13 12 10 8 6 4 3 8 11 11 11 11 11 11
6 7 6 9 10 14 15 15 16 16 16 16 16 16 16 16 17 18 17 17 17 16 15 14 13 11 10 10 10 10 10 9 5 3 4 3 8 10 10 10 10 10 10
5 6 6 7 7 8 10 13 14 14 15 15 14 14 14 15 16 16 15 15 16 15 14 13 12 11 9 8 9 9 9 7 4 3 2 4 8 9 9 8 8 8 9
5 4 6 6 7 7 8 11 11 12 13 13 12 14 13 9 10 11 12 14 14 14 14 13 11 10 7 6 7 7 5 3 4 2 2 6 8 8 8 7 7 7 7
6 5 5 6 7 7 7 7 6 7 7 7 7 9 8 7 7 9 12 13 14 13 12 12 10 8 5 3 4 4 2 4 3 2 2 7 8 7 7 6 6 5 5
6 6 6 5 6 7 5 6 4 4 5 6 8 9 8 7 6 6 6 7 8 9 6 7 5 3 3 2 2 2 3 3 2 2 3 6 7 7 6 6 5 5 5
5 5 5 6 5 7 6 5 5 4 4 5 7 9 8 6 6 6 5 5 5 4 5 4 3 3 3 3 3 3 3 3 3 2 3 6 6 7 6 6 5 4 4
5 5 4 5 5 6 6 6 6 5 5 6 7 8 8 7 8 7 6 5 5 4 5 5 4 4 3 3 3 4 4 4 4 3 2 5 6 6 6 5 5 4 3
5 5 5 5 5 5 6 6 6 6 6 6 7 8 9 7 8 8 7 7 6 6 5 5 5 5 4 3 3 4 5 4 4 4 3 4 5 6 6 6 5 4 3
5 5 5 5 4 5 6 8 6 6 6 6 6 8 9 9 9 8 8 7 7 6 6 4 4 3 3 3 3 4 4 4 4 4 4 3 3 4 5 5 4 3 2
5 5 5 5 5 5 5 6 6 7 7 6 6 8 10 10 10 8 8 8 7 7 6 5 5 4 4 3 3 3 3 3 4 4 3 3 2 2 3 4 4 3 2
3 4 5 5 6 6 6 5 6 7 7 6 6 7 9 10 10 8 8 8 8 7 6 6 5 4 4 4 4 3 3 3 3 3 3 4 3 3 2 3 3 2 2
3 4 4 5 6 6 4 4 5 6 6 6 6 7 10 9 10 9 7 8 9 7 6 6 6 5 4 5 4 2 1 2 2 3 3 3 3 4 3 3 2 1 2
3 4 5 5 6 5 4 4 5 6 6 6 6 8 10 10 10 9 7 8 8 8 8 8 5 6 4 4 3 1 1 0 1 2 2 3 3 3 4 3 3 2 1
4 4 4 5 5 6 5 4 4 5 5 5 5 6 9 10 10 9 8 8 9 7 8 7 6 4 3 4 4 3 1 1 1 1 2 3 3 3 3 4 3 3 2
3 4 4 4 5 5 6 3 3 4 3 4 4 5 7 9 10 9 10 8 8 9 8 8 7 7 5 4 4 5 4 4 2 1 2 2 3 3 3 3 4 3 3
3 3 4 4 4 4 4 4 6 6 6 5 5 5 6 8 9 9 9 9 9 8 8 8 7 5 7 5 3 2 3 4 4 2 1 2 3 4 4 3 3 3 3
2 2 2 2 3 3 3 4 5 5 4 4 4 5 6 6 8 8 9 8 8 8 8 8 7 6 5 5 4 3 2 1 2 3 3 2 2 2 3 3 3 3 3
1 1 1 2 2 2 4 4 5 6 6 6 5 6 6 5 6 8 8 7 8 7 9 9 8 8 7 6 5 3 4 4 3 3 3 3 3 2 2 2 3 3 3
Wind_Direction
168 166 167 164 159 155 151 147 144 141 138 135 133 131 129 128 127 126 125 124 122 120 117 114 111 107 105 103 101 98 94 90 86 83 81 81 83 84 82 78 73 67 73
159 163 165 164 161 158 155 151 147 144 142 141 139 137 135 133 131 131 129 128 125 122 120 117 113 110 109 107 105 102 98 94 90 86 81 79 83 85 84 82 79 77 75
153 162 163 163 161 159 157 154 151 148 147 146 144 143 141 138 136 135 133 131 127 124 122 118 115 113 112 110 108 105 102 98 96 90 84 77 85 87 86 84 82 80 78
152 160 163 163 162 161 159 157 155 154 152 151 149 148 145 143 141 138 136 133 129 124 121 119 118 116 114 111 108 105 103 100 97 93 78 70 82 90 88 86 83 81 79
150 156 161 163 162 162 160 159 159 158 157 155 153 152 149 147 145 142 138 133 129 125 122 122 121 119 115 109 104 102 102 102 99 90 78 70 74 91 89 86 85 83 81
149 157 161 162 164 163 162 162 163 163 161 159 157 155 152 150 147 144 138 133 129 127 126 126 125 123 116 109 104 103 104 105 98 87 81 77 79 95 93 90 88 85 82
147 157 164 161 164 165 165 166 165 165 164 162 160 158 156 153 149 144 138 136 134 132 131 131 131 127 119 110 106 107 108 107 102 94 88 86 95 99 96 93 90 87 84
149 155 167 165 163 165 167 166 166 165 165 164 163 161 157 153 149 145 141 140 139 138 136 135 135 132 123 113 110 111 112 111 110 104 97 95 106 101 97 94 93 90 87
147 150 163 168 166 166 163 164 166 165 166 166 165 161 156 152 149 147 145 144 143 141 139 139 140 137 129 120 116 112 110 109 112 117 113 107 112 106 102 99 96 94 92
143 151 158 167 164 167 166 164 164 165 165 165 163 158 153 151 150 148 147 146 145 144 143 144 145 143 133 122 116 115 111 108 110 112 115 126 121 114 109 105 102 99 96
151 156 157 168 165 163 167 167 162 161 162 160 157 152 149 150 149 149 148 147 146 147 147 149 150 146 135 122 119 119 111 118 124 125 133 136 132 124 118 113 110 106 100
173 172 160 168 169 161 167 161 162 162 159 156 154 153 149 147 150 150 148 148 148 149 151 154 155 149 134 118 118 118 120 132 133 142 155 150 142 134 127 122 119 114 110
181 175 170 164 168 164 163 161 161 160 159 155 154 155 150 147 146 145 147 147 148 149 149 154 150 149 151 147 138 141 147 144 149 161 161 156 152 146 139 137 133 126 121
187 175 174 166 167 168 161 163 160 160 164 164 163 159 156 154 153 155 155 155 156 157 155 156 159 169 176 178 168 160 161 155 160 161 168 161 160 158 156 154 152 151 149
188 168 158 161 163 171 163 167 166 168 171 170 168 167 162 161 162 161 161 162 164 162 164 166 172 179 185 187 176 169 168 166 168 166 165 169 168 169 170 171 171 170 170
186 170 159 159 161 168 170 168 166 170 172 172 174 173 169 165 168 167 167 170 172 173 173 174 181 183 187 177 172 169 166 164 165 165 169 177 182 181 184 186 183 182 185
189 170 166 161 159 167 178 174 166 169 170 178 177 174 175 172 171 173 172 175 178 176 173 174 179 176 176 170 165 164 160 162 166 172 174 179 186 194 196 196 191 188 195
194 176 173 171 167 174 182 184 173 173 172 181 181 177 177 177 173 174 176 180 179 175 175 177 175 173 176 166 162 167 163 161 170 177 177 181 181 184 199 197 191 193 200
201 188 180 178 173 179 181 186 182 175 177 178 183 181 180 178 177 176 180 182 178 177 180 183 176 170 169 166 163 161 167 171 177 175 179 185 183 178 177 179 177 174 177
220 201 184 180 176 177 178 184 180 175 180 178 184 189 182 181 179 177 178 183 180 179 183 180 172 170 167 163 152 146 169 183 180 179 182 182 182 180 173 168 167 174 174
213 207 198 187 178 173 175 189 185 184 183 182 184 193 187 184 181 180 181 181 182 185 185 177 167 167 165 149 125 114 9 307 202 198 182 173 178 175 164 169 169 170 177
213 210 208 199 186 181 186 190 192 178 181 181 178 190 190 184 184 185 183 184 182 182 181 177 164 162 168 166 150 142 171 273 270 224 193 185 182 170 170 172 167 171 165
222 206 201 200 203 194 188 178 182 165 157 170 181 191 194 186 186 188 188 185 184 182 185 183 176 170 173 184 173 164 171 201 194 244 216 200 187 182 183 175 175 175 170
214 212 208 191 192 185 177 184 187 183 184 187 182 190 191 186 186 189 188 186 189 185 185 186 183 179 171 182 189 202 193 161 164 188 237 220 201 195 192 184 175 172 168
217 204 203 176 188 178 178 190 191 192 192 181 176 188 194 188 186 184 187 187 190 188 187 186 184 183 182 184 185 179 186 195 178 169 202 210 220 213 192 183 176 169 169
277 205 180 143 160 184 190 196 191 195 193 185 188 194 197 193 191 187 188 191 193 190 190 191 189 187 191 189 190 186 181 180 192 185 195 196 208 209 186 179 178 173 168